• In Czech Republic
  • List of Countries
  • For 7 days
  • Water Temperature
  • Satellite Maps
  • Weather Map
  • Weather Widgets
  • user-avatar
    Login

    Hourly Weather Nikolo-Pustyn

    Today, 22 September, Saturday

    Time Temperature Precipitation Wind Pressure Humidity
    00:00 +16°C° 0 mm 2 mps 740 mmHg 93%
    01:00 +16°C° 0 mm 3 mps 740 mmHg 94%
    02:00 +16°C° 0 mm 3 mps 739 mmHg 95%
    03:00 +16°C° 0 mm 3 mps 739 mmHg 95%
    04:00 +16°C° 0 mm 3 mps 739 mmHg 95%
    05:00 +14°C° 0 mm 3 mps 739 mmHg 94%
    06:00 +17°C° 0 mm 4 mps 738 mmHg 89%
    07:00 +18°C° 0 mm 4 mps 738 mmHg 84%
    08:00 +19°C° 0 mm 5 mps 738 mmHg 78%
    09:00 +20°C° 0 mm 5 mps 738 mmHg 71%
    10:00 +22°C° 0 mm 6 mps 737 mmHg 64%
    11:00 +23°C° 0 mm 6 mps 737 mmHg 56%
    12:00 +24°C° 0 mm 6 mps 736 mmHg 55%
    13:00 +24°C° 0 mm 6 mps 736 mmHg 54%
    14:00 +24°C° 0 mm 6 mps 736 mmHg 52%
    15:00 +23°C° 0 mm 5 mps 735 mmHg 57%
    16:00 +22°C° 0 mm 4 mps 735 mmHg 62%
    17:00 +21°C° 0 mm 4 mps 734 mmHg 66%
    18:00 +20°C° 0.3 mm 4 mps 734 mmHg 71%
    19:00 +18°C° 0.3 mm 4 mps 734 mmHg 76%
    20:00 +17°C° 0.3 mm 4 mps 734 mmHg 81%
    21:00 +16°C° 0.2 mm 3 mps 734 mmHg 84%
    22:00 +13°C° 0.2 mm 3 mps 734 mmHg 88%
    23:00 +12°C° 0.2 mm 3 mps 734 mmHg 91%

    Tomorrow, 23 September, Sunday

    Time Temperature Precipitation Wind Pressure Humidity
    00:00 +11°C° 0.1 mm 3 mps 734 mmHg 91%
    01:00 +11°C° 0.1 mm 3 mps 734 mmHg 90%
    02:00 +10°C° 0.1 mm 3 mps 734 mmHg 89%
    03:00 +10°C° 0.6 mm 3 mps 734 mmHg 89%
    04:00 +9°C° 0.6 mm 3 mps 733 mmHg 90%
    05:00 +9°C° 0.6 mm 3 mps 733 mmHg 91%
    06:00 +9°C° 1.3 mm 3 mps 733 mmHg 92%
    07:00 +8°C° 1.3 mm 3 mps 733 mmHg 93%
    08:00 +8°C° 1.3 mm 3 mps 733 mmHg 94%
    09:00 +9°C° 0.5 mm 3 mps 733 mmHg 90%
    10:00 +10°C° 0.5 mm 3 mps 733 mmHg 86%
    11:00 +11°C° 0.5 mm 4 mps 734 mmHg 82%
    12:00 +12°C° 0.1 mm 4 mps 733 mmHg 77%
    13:00 +13°C° 0.1 mm 4 mps 733 mmHg 72%
    14:00 +14°C° 0.1 mm 4 mps 733 mmHg 66%
    15:00 +13°C° 0.1 mm 3 mps 733 mmHg 70%
    16:00 +12°C° 0.1 mm 3 mps 733 mmHg 74%
    17:00 +12°C° 0.1 mm 2 mps 733 mmHg 78%
    18:00 +10°C° 0.1 mm 3 mps 733 mmHg 81%
    19:00 +9°C° 0.1 mm 3 mps 733 mmHg 84%
    20:00 +8°C° 0.1 mm 3 mps 733 mmHg 87%
    21:00 +8°C° 0 mm 3 mps 733 mmHg 88%
    22:00 +8°C° 0 mm 3 mps 733 mmHg 88%
    23:00 +7°C° 0 mm 3 mps 733 mmHg 89%

    Day after tomorrow, 24 September, Monday

    Time Temperature Precipitation Wind Pressure Humidity
    00:00 +7°C° 0 mm 3 mps 733 mmHg 90%
    01:00 +7°C° 0 mm 3 mps 733 mmHg 91%
    02:00 +5°C° 0 mm 3 mps 733 mmHg 93%
    03:00 +5°C° 0 mm 3 mps 733 mmHg 93%
    04:00 +5°C° 0 mm 3 mps 733 mmHg 94%
    05:00 +4°C° 0 mm 3 mps 733 mmHg 94%
    06:00 +5°C° 0 mm 3 mps 733 mmHg 90%
    07:00 +7°C° 0 mm 3 mps 733 mmHg 87%
    08:00 +8°C° 0 mm 3 mps 733 mmHg 83%
    09:00 +10°C° 0 mm 3 mps 733 mmHg 77%
    10:00 +11°C° 0 mm 3 mps 732 mmHg 71%
    11:00 +12°C° 0 mm 4 mps 732 mmHg 65%
    12:00 +12°C° 0.1 mm 4 mps 731 mmHg 66%
    13:00 +12°C° 0.1 mm 4 mps 730 mmHg 67%
    14:00 +12°C° 0.1 mm 4 mps 730 mmHg 69%
    15:00 +10°C° 1.6 mm 5 mps 729 mmHg 76%
    16:00 +9°C° 1.6 mm 5 mps 728 mmHg 83%
    17:00 +8°C° 1.6 mm 5 mps 727 mmHg 91%
    18:00 +7°C° 2.4 mm 6 mps 725 mmHg 91%
    19:00 +6°C° 2.4 mm 7 mps 724 mmHg 91%
    20:00 +6°C° 2.4 mm 7 mps 722 mmHg 92%
    21:00 +6°C° 3 mm 7 mps 721 mmHg 92%
    22:00 +6°C° 3 mm 7 mps 719 mmHg 92%
    23:00 +6°C° 3 mm 7 mps 718 mmHg 93%

    25 September, Tuesday

    Time Temperature Precipitation Wind Pressure Humidity
    00:00 +7°C° 1.6 mm 6 mps 717 mmHg 93%
    01:00 +7°C° 1.6 mm 5 mps 716 mmHg 93%
    02:00 +7°C° 1.6 mm 4 mps 716 mmHg 94%
    03:00 +6°C° 1.2 mm 4 mps 716 mmHg 94%
    04:00 +6°C° 1.2 mm 5 mps 716 mmHg 94%
    05:00 +6°C° 1.2 mm 5 mps 716 mmHg 94%
    06:00 +5°C° 0.9 mm 6 mps 717 mmHg 93%
    07:00 +5°C° 0.9 mm 7 mps 717 mmHg 92%
    08:00 +5°C° 0.9 mm 8 mps 718 mmHg 90%
    09:00 +5°C° 0.8 mm 9 mps 719 mmHg 89%
    10:00 +5°C° 0.8 mm 9 mps 720 mmHg 87%
    11:00 +3°C° 0.8 mm 10 mps 721 mmHg 86%
    12:00 +3°C° 0.3 mm 9 mps 723 mmHg 84%
    13:00 +3°C° 0.3 mm 9 mps 724 mmHg 82%
    14:00 +3°C° 0.3 mm 9 mps 725 mmHg 80%
    15:00 +3°C° 0.1 mm 9 mps 726 mmHg 79%
    16:00 +4°C° 0.1 mm 8 mps 727 mmHg 78%
    17:00 +4°C° 0.1 mm 8 mps 728 mmHg 78%
    18:00 +3°C° 0.1 mm 7 mps 728 mmHg 76%
    19:00 +3°C° 0.1 mm 7 mps 729 mmHg 74%
    20:00 +3°C° 0.1 mm 6 mps 730 mmHg 72%
    21:00 +2°C° 0 mm 6 mps 730 mmHg 73%
    22:00 +1°C° 0 mm 6 mps 731 mmHg 73%
    23:00 +1°C° 0 mm 5 mps 731 mmHg 73%

    26 September, Wednesday

    Time Temperature Precipitation Wind Pressure Humidity
    00:00 +1°C° 0 mm 5 mps 731 mmHg 74%
    01:00 0°C° 0 mm 5 mps 732 mmHg 75%
    02:00 0°C° 0 mm 5 mps 732 mmHg 76%
    03:00 0°C° 0 mm 5 mps 733 mmHg 76%
    04:00 0°C° 0 mm 5 mps 733 mmHg 77%
    05:00 -1°C° 0 mm 5 mps 734 mmHg 77%
    06:00 0°C° 0 mm 5 mps 734 mmHg 75%
    07:00 +1°C° 0 mm 5 mps 735 mmHg 73%
    08:00 +2°C° 0 mm 5 mps 735 mmHg 71%
    09:00 +3°C° 0 mm 5 mps 736 mmHg 68%
    10:00 +5°C° 0 mm 5 mps 736 mmHg 65%
    11:00 +6°C° 0 mm 5 mps 737 mmHg 62%
    12:00 +7°C° 0 mm 5 mps 737 mmHg 60%
    13:00 +7°C° 0 mm 5 mps 738 mmHg 58%
    14:00 +7°C° 0 mm 5 mps 738 mmHg 57%
    15:00 +6°C° 0 mm 4 mps 739 mmHg 60%
    16:00 +5°C° 0 mm 4 mps 739 mmHg 63%
    17:00 +4°C° 0 mm 3 mps 740 mmHg 67%
    18:00 +3°C° 0 mm 3 mps 740 mmHg 69%
    19:00 +2°C° 0 mm 3 mps 741 mmHg 72%
    20:00 +2°C° 0 mm 2 mps 741 mmHg 74%
    21:00 +2°C° 0 mm 2 mps 742 mmHg 75%
    22:00 +1°C° 0 mm 2 mps 742 mmHg 76%
    23:00 +1°C° 0 mm 2 mps 742 mmHg 77%

    27 September, Thursday

    Time Temperature Precipitation Wind Pressure Humidity
    00:00 +1°C° 0 mm 2 mps 742 mmHg 78%
    01:00 0°C° 0 mm 3 mps 742 mmHg 79%
    02:00 0°C° 0 mm 3 mps 742 mmHg 80%
    03:00 0°C° 0 mm 3 mps 741 mmHg 81%
    04:00 -1°C° 0 mm 4 mps 741 mmHg 81%
    05:00 0°C° 0 mm 4 mps 741 mmHg 81%
    06:00 +1°C° 0 mm 5 mps 740 mmHg 78%
    07:00 +2°C° 0 mm 6 mps 739 mmHg 75%
    08:00 +3°C° 0 mm 7 mps 739 mmHg 71%
    09:00 +4°C° 0.5 mm 7 mps 738 mmHg 74%
    10:00 +4°C° 0.5 mm 8 mps 737 mmHg 77%
    11:00 +4°C° 0.5 mm 8 mps 736 mmHg 80%
    12:00 +4°C° 1.1 mm 8 mps 736 mmHg 82%
    13:00 +5°C° 1.1 mm 9 mps 735 mmHg 85%
    14:00 +5°C° 1.1 mm 9 mps 734 mmHg 87%
    15:00 +5°C° 0.9 mm 9 mps 733 mmHg 88%
    16:00 +5°C° 0.9 mm 8 mps 733 mmHg 88%
    17:00 +6°C° 0.9 mm 8 mps 732 mmHg 89%
    18:00 +6°C° 0.3 mm 8 mps 732 mmHg 89%
    19:00 +6°C° 0.3 mm 8 mps 732 mmHg 89%
    20:00 +7°C° 0.3 mm 8 mps 731 mmHg 89%
    21:00 +7°C° 0.1 mm 8 mps 731 mmHg 89%
    22:00 +7°C° 0.1 mm 8 mps 731 mmHg 89%
    23:00 +9°C° 0.1 mm 7 mps 731 mmHg 89%
    Show more